Location: Białystok
(53.1343°N, 23.1544°E)
Time: 11:12:12
(UTC+01:00)

ISS - Visible Passes

Search period start: 24 January 2019 00:00
Search period end: 03 February 2019 00:00
Orbit: 404 x 410 km, 51.6° (Epoch: 24 January)

Date Brightness Start Highest point End Pass type
(mag) Time Alt. Az. Time Alt. Az. Time Alt. Az.
24 Jan -1.7 17:50:11 10° S 17:52:03 16° SSE 17:52:03 16° SSE visible
25 Jan -1.4 17:00:17 10° SSE 17:01:16 11° SE 17:02:15 10° ESE visible
25 Jan -1.8 18:34:02 10° SW 18:35:41 24° SSW 18:35:41 24° SSW visible
26 Jan -2.5 17:43:00 10° SSW 17:45:52 27° SSE 17:46:30 25° SE visible
26 Jan -0.6 19:18:49 10° WSW 19:19:14 13° WSW 19:19:14 13° WSW visible
27 Jan -1.9 16:52:11 10° SSW 16:54:39 20° SSE 16:57:08 10° E visible
27 Jan -2.8 18:27:30 10° WSW 18:30:00 42° SSW 18:30:00 42° SSW visible
28 Jan -3.1 17:36:15 10° SW 17:39:25 42° SSE 17:40:43 27° ESE visible
28 Jan -0.9 19:12:28 10° W 19:13:26 18° W 19:13:26 18° W visible
29 Jan -2.5 16:45:07 10° SW 16:48:06 32° SSE 16:51:06 10° E visible
29 Jan -3.5 18:21:05 10° WSW 18:24:07 63° SSW 18:24:07 63° SSW visible
30 Jan -3.5 17:29:43 10° WSW 17:32:59 58° SSE 17:34:47 23° E visible
30 Jan -1.3 19:06:06 10° W 19:07:30 23° W 19:07:30 23° W visible
31 Jan -3.8 18:14:41 10° W 18:17:59 68° S 18:18:09 66° SSE visible
01 Feb -3.6 17:23:15 10° W 17:26:33 68° S 17:28:49 18° E visible
01 Feb -1.7 18:59:43 10° W 19:01:32 28° WSW 19:01:32 28° WSW visible
02 Feb -3.5 18:08:15 10° W 18:11:31 59° S 18:12:12 46° SE visible
